Location: Newark
(48.8604°N, 2.3376°E)
Time: 11:27:56
(UTC+00:00)

CUTE-I - Visible Passes

Search period start: 06 December 2021 00:00
Search period end: 16 December 2021 00:00
Orbit: 811 x 824 km, 98.7° (Epoch: 05 December)

Date Brightness Start Highest point End Pass type
(mag) Time Alt. Az. Time Alt. Az. Time Alt. Az.
06 Dec ? 05:10:41 10° NE 05:14:51 22° E 05:18:58 10° SE visible
06 Dec ? 06:49:58 10° N 06:55:18 62° WNW 07:00:35 10° SSW visible
06 Dec ? 16:35:55 10° SE 16:41:04 52° ENE 16:46:16 10° N visible
06 Dec ? 18:16:56 10° SSW 18:21:22 26° W 18:25:51 10° NW visible
07 Dec ? 04:50:01 10° NE 04:53:00 15° E 04:55:58 10° ESE visible
07 Dec ? 06:28:21 10° NNE 06:33:46 89° WNW 06:39:09 10° SSW visible
07 Dec ? 17:54:39 10° SSW 17:59:38 39° W 18:04:39 10° NNW visible
08 Dec ? 06:06:49 10° NNE 06:12:10 63° ESE 06:17:30 10° S visible
08 Dec ? 17:32:42 10° S 17:37:58 58° W 17:43:16 10° NNW visible
09 Dec ? 05:45:25 10° NNE 05:50:31 42° E 05:55:35 10° SSE visible
09 Dec ? 17:11:00 10° SSE 17:16:21 85° WSW 17:21:46 10° NNW visible
09 Dec ? 18:54:35 10° WSW 18:57:11 14° W 18:59:49 10° WNW visible
10 Dec ? 05:24:10 10° NE 05:28:48 28° E 05:33:23 10° SSE visible
10 Dec ? 16:49:31 10° SSE 16:54:49 66° ENE 17:00:09 10° N visible
10 Dec ? 18:31:24 10° SW 18:35:20 21° W 18:39:17 10° NW visible
11 Dec ? 05:03:11 10° NE 05:06:59 19° E 05:10:46 10° SE visible
11 Dec ? 06:42:10 10° N 06:47:33 71° WNW 06:52:53 10° SSW visible
11 Dec ? 16:28:17 10° SE 16:33:20 45° ENE 16:38:27 10° N visible
11 Dec ? 18:08:52 10° SSW 18:13:32 30° W 18:18:15 10° NNW visible
12 Dec ? 04:42:49 10° ENE 04:45:06 13° E 04:47:23 10° ESE visible
12 Dec ? 06:20:35 10° NNE 06:26:00 80° ESE 06:31:23 10° SSW visible
12 Dec ? 17:46:42 10° S 17:51:49 45° W 17:56:58 10° NNW visible
13 Dec ? 05:59:06 10° NNE 06:04:23 54° E 06:09:38 10° S visible
13 Dec ? 17:24:51 10° S 17:30:10 67° WSW 17:35:33 10° NNW visible
13 Dec ? 19:11:05 10° W 19:11:13 10° W 19:11:22 10° W visible
14 Dec ? 05:37:44 10° NNE 05:42:42 36° E 05:47:37 10° SSE visible
14 Dec ? 17:03:13 10° SSE 17:08:35 84° ENE 17:14:00 10° NNW visible
14 Dec ? 18:46:06 10° SW 18:49:18 16° W 18:52:31 10° NW visible
15 Dec ? 05:16:34 10° NE 05:20:57 25° E 05:25:17 10° SSE visible
15 Dec ? 06:56:03 10° N 07:01:18 55° WNW 07:06:31 10° SW visible
15 Dec ? 16:41:50 10° SSE 16:47:04 57° ENE 16:52:20 10° N visible
15 Dec ? 18:23:12 10° SW 18:27:27 24° W 18:31:45 10° NW visible
